Wind_Speed
21 22 23 24 24 24 25 26 26 26 27 28 28 27 27 27 28 29 28 29 28 29 30 30 30 30 29 30 30 30 29 28 28 28 28 27 27 27 27 27 27 28 27
22 23 24 25 25 26 26 26 27 27 27 27 28 27 26 26 26 26 26 26 27 27 29 29 28 28 28 28 28 29 29 28 29 28 28 28 29 28 28 28 29 29 29
25 25 26 27 27 27 27 27 27 27 27 27 27 27 27 26 25 25 25 25 25 27 27 27 28 28 27 26 26 27 29 28 28 28 29 29 29 29 29 30 31 32 32
27 28 29 29 28 27 28 28 27 26 26 26 27 27 26 26 27 26 25 25 25 25 26 26 25 26 27 26 25 26 26 27 27 28 29 29 29 29 30 30 31 32 33
27 27 27 27 27 27 27 27 26 26 25 25 25 25 25 25 26 26 25 25 25 24 24 24 23 23 24 25 25 25 25 26 26 26 27 28 28 29 30 31 32 32 33
26 25 25 25 26 26 25 25 24 24 24 24 23 24 25 25 25 24 24 25 25 24 23 23 23 22 22 22 23 23 22 23 24 25 27 28 28 29 30 31 32 33 33
25 24 23 22 22 23 24 24 23 22 23 23 22 23 24 24 24 24 24 24 25 23 22 22 22 21 21 21 21 22 23 23 23 25 26 27 28 28 28 30 31 32 32
21 21 20 21 21 21 22 22 22 21 21 21 21 22 22 23 23 23 23 23 23 23 23 22 22 21 21 21 21 21 22 23 24 25 26 26 27 28 28 29 30 30 31
19 18 18 18 18 18 19 20 21 20 19 19 19 20 21 21 22 21 21 21 22 23 22 22 22 22 21 22 23 22 22 23 25 26 27 27 27 28 29 30 30 30 30
18 18 18 17 17 17 18 18 19 19 18 18 18 18 19 19 20 21 21 20 20 21 21 20 21 21 20 21 23 23 23 23 24 25 26 27 27 28 29 30 30 30 30
18 18 18 17 17 17 17 18 18 18 18 18 18 18 18 18 19 20 20 20 20 20 20 20 20 21 21 21 22 22 23 23 24 25 26 27 27 28 28 29 29 30 31
18 18 18 18 18 18 18 18 17 18 18 18 18 18 18 18 18 19 20 19 20 20 19 19 20 21 22 22 22 22 23 23 24 24 25 26 27 27 28 29 30 30 31
19 19 19 18 18 19 19 19 19 19 19 19 19 18 18 18 18 19 19 19 19 19 18 19 20 21 22 22 22 22 22 22 23 24 24 25 26 28 29 29 30 30 31
21 21 20 20 20 20 20 20 20 20 20 19 19 18 18 18 18 19 19 20 19 19 19 20 21 21 21 21 21 22 22 23 24 24 25 26 27 27 28 28 29 30 31
22 22 22 22 22 22 21 21 21 20 20 19 19 18 18 19 19 19 19 19 19 19 20 21 21 22 22 22 22 22 23 24 24 25 26 26 27 27 28 29 30 31 32
22 23 23 23 23 22 22 22 21 21 20 20 19 19 18 19 19 20 20 20 20 20 21 21 22 22 22 22 22 23 23 24 24 25 25 26 26 27 28 29 30 31 31
24 24 23 23 23 22 22 21 21 20 20 19 18 17 17 17 18 18 18 19 20 21 21 21 21 21 22 22 22 23 23 23 23 24 24 25 25 26 27 28 29 29 29
23 23 22 22 21 20 20 19 19 18 18 17 16 16 16 16 16 15 16 17 17 17 18 18 18 19 19 19 20 20 21 21 22 22 23 24 24 25 26 27 28 28 28
22 21 20 20 19 18 17 16 15 15 15 14 14 13 13 14 14 14 14 15 15 16 16 16 17 17 17 18 18 18 19 20 20 21 22 22 23 24 24 25 25 26 26
20 19 19 18 16 15 14 13 12 12 12 12 11 11 12 12 13 13 13 14 14 14 14 14 15 16 16 16 17 17 18 19 19 20 20 21 21 22 22 22 23 23 24
17 17 16 15 12 11 10 10 9 10 10 10 9 9 10 10 11 11 12 13 12 12 13 13 13 14 14 15 15 16 16 17 18 18 19 19 19 19 19 19 19 20 20
15 14 12 10 9 8 7 7 7 7 7 7 7 7 7 7 8 8 9 10 10 11 11 11 11 12 13 13 13 14 14 15 15 16 16 16 16 16 16 17 17 17 17
12 9 8 6 5 5 4 4 4 4 4 4 5 5 5 5 5 5 5 6 7 7 7 8 8 9 10 11 12 12 11 12 12 12 12 12 13 13 14 14 15 15 16
7 5 3 3 3 3 3 3 3 4 4 4 3 3 3 2 2 2 2 2 3 3 4 5 6 6 7 8 8 8 8 8 9 9 10 11 12 12 13 13 13 14 13
4 2 0 1 1 2 3 3 3 4 4 4 3 3 2 1 0 0 1 1 2 2 3 3 4 4 4 5 5 6 6 6 7 8 9 10 11 11 11 11 11 11 11
4 2 2 2 3 4 4 4 4 4 4 3 3 3 2 2 2 2 2 3 3 3 3 3 3 4 4 4 4 5 5 6 7 8 9 9 10 10 10 9 9 10 10
Wind_Direction
276 276 279 277 277 278 276 276 276 277 277 277 271 266 260 262 262 262 262 263 262 262 259 258 259 256 254 252 250 248 245 243 243 242 241 241 243 245 245 248 251 253 255
280 279 278 278 277 277 275 276 278 280 281 278 274 269 264 264 263 261 261 264 263 261 258 256 252 252 250 250 249 244 242 243 241 240 240 240 242 243 246 249 252 254 256
281 280 279 277 277 275 274 276 277 279 281 279 277 274 267 266 265 260 259 262 261 260 258 254 251 253 253 249 246 239 236 239 239 239 239 240 245 248 249 252 254 256 258
282 281 279 277 275 275 275 275 276 277 278 279 276 274 271 266 264 261 258 258 258 260 255 254 254 250 248 247 243 238 238 238 239 240 240 242 247 248 249 253 255 258 260
283 281 281 279 276 275 275 275 274 275 277 278 274 271 267 264 263 260 257 255 255 254 250 250 252 249 245 241 241 239 238 236 238 241 244 247 249 251 251 252 256 260 262
285 282 281 280 277 275 273 274 273 274 277 278 275 269 265 262 261 259 254 252 252 251 249 249 247 245 242 238 238 237 236 236 239 242 246 249 251 253 254 254 257 261 263
285 282 280 280 279 274 271 273 273 273 276 277 276 270 264 262 262 259 255 252 250 249 249 247 244 244 244 241 237 237 238 239 242 245 248 250 252 254 256 258 260 263 266
288 282 278 279 278 275 273 272 273 274 274 275 274 273 266 262 261 258 257 255 250 250 247 243 242 245 247 244 241 242 243 242 243 246 249 250 252 254 256 259 262 266 267
291 287 284 282 280 277 275 272 271 272 273 273 273 272 266 262 259 257 258 256 250 246 243 241 241 243 245 244 244 245 247 247 246 247 249 250 251 253 256 260 263 266 267
292 289 288 284 282 281 277 275 272 271 272 271 270 269 266 262 258 256 255 254 249 245 242 242 242 243 245 247 248 249 250 248 247 249 249 249 250 253 256 259 263 265 266
293 292 289 285 282 280 277 275 274 271 271 271 269 267 264 262 260 257 256 252 248 247 244 243 244 247 250 250 249 250 251 251 250 250 251 252 253 255 258 260 262 264 267
292 291 288 285 281 279 277 276 274 269 269 270 269 265 262 260 257 255 254 252 250 250 248 246 248 249 249 249 250 250 250 251 251 252 253 254 254 257 259 261 265 266 267
293 291 289 286 283 280 278 275 272 269 269 270 268 266 262 259 255 252 251 252 252 252 249 249 251 252 251 250 250 250 250 252 254 255 258 259 260 261 261 263 264 266 268
289 289 287 285 283 282 278 275 272 270 270 269 267 264 260 258 254 248 247 250 251 250 250 251 252 254 254 253 252 253 253 255 257 259 261 262 263 264 265 266 268 270 271
287 285 283 283 282 281 278 275 271 269 267 265 263 261 260 258 254 249 249 249 248 248 252 253 254 256 255 255 256 257 257 259 262 263 264 265 266 266 269 270 271 272 273
285 285 285 284 283 281 277 275 270 268 265 262 261 258 257 256 253 250 250 250 250 253 257 257 255 256 256 257 258 258 260 262 263 264 266 267 269 270 271 273 273 274 276
288 286 286 286 285 282 278 275 271 268 265 263 261 255 255 254 253 253 251 252 253 255 257 257 257 257 259 259 259 260 262 263 265 266 268 270 271 272 273 275 277 279 280
291 289 288 286 284 282 280 276 271 266 262 260 256 253 252 251 252 254 252 251 251 251 254 255 257 259 261 260 260 262 263 265 268 270 272 274 275 277 278 280 281 282 283
290 290 288 285 284 282 279 274 268 262 257 253 252 249 249 249 248 250 250 252 252 253 254 257 259 260 260 261 262 264 266 269 272 274 276 278 280 281 282 283 285 285 286
292 290 288 285 284 280 275 269 261 253 250 246 244 244 246 246 248 250 251 252 255 257 256 257 258 259 262 263 263 267 270 273 275 278 281 283 285 285 286 288 289 289 290
295 292 289 287 282 278 271 260 246 241 241 240 241 244 245 245 247 250 253 252 253 256 258 260 260 263 266 269 268 271 275 278 279 282 284 285 287 287 289 292 294 295 296
298 293 288 283 277 269 263 246 235 232 232 232 233 236 237 241 246 251 251 248 251 256 260 265 267 268 269 275 275 279 282 284 285 286 287 288 289 292 295 298 299 300 301
302 292 283 275 268 259 234 211 215 214 215 217 219 222 227 235 243 251 256 254 255 256 259 267 273 274 275 278 282 282 282 284 288 292 295 297 299 301 302 303 303 303 303
316 303 280 260 225 217 198 190 184 184 184 185 188 197 205 221 247 268 269 260 262 269 277 283 282 281 280 281 284 287 289 296 302 307 310 310 311 311 310 310 309 309 308
347 348 10 167 185 172 160 156 157 160 159 158 155 153 153 160 152 36 49 41 18 350 327 319 310 304 303 304 309 313 318 321 321 321 320 320 322 323 324 324 323 322 321
21 50 82 119 129 138 147 144 143 144 143 140 138 137 130 105 62 50 51 50 39 29 25 21 12 360 350 347 346 346 344 342 339 337 336 337 338 338 338 338 337 335 334
Height
5813 5812 5812 5812 5812 5812 5811 5811 5811 5812 5811 5811 5810 5810 5810 5811 5812 5813 5814 5815 5817 5818 5818 5820 5822 5822 5824 5825 5827 5829 5832 5834 5836 5838 5840 5842 5844 5846 5848 5849 5851 5851 5852
5807 5807 5807 5806 5806 5806 5805 5805 5805 5805 5805 5805 5804 5803 5804 5804 5805 5806 5807 5808 5810 5811 5811 5813 5814 5816 5817 5818 5820 5823 5825 5828 5830 5832 5833 5835 5838 5840 5842 5843 5845 5845 5846
5802 5801 5800 5800 5799 5799 5799 5799 5799 5799 5799 5798 5797 5797 5798 5798 5798 5799 5800 5801 5802 5803 5805 5806 5807 5808 5810 5812 5814 5816 5819 5821 5824 5826 5828 5830 5832 5834 5835 5837 5838 5839 5839
5795 5794 5794 5792 5792 5792 5792 5792 5792 5792 5792 5791 5791 5791 5791 5792 5792 5793 5794 5794 5795 5795 5797 5799 5801 5802 5804 5806 5808 5810 5812 5815 5817 5819 5822 5824 5826 5827 5829 5830 5830 5831 5832
5789 5788 5786 5786 5785 5785 5785 5785 5786 5786 5785 5785 5784 5784 5784 5785 5785 5786 5787 5788 5789 5790 5792 5794 5795 5797 5798 5800 5802 5804 5807 5809 5812 5813 5815 5817 5819 5820 5822 5822 5823 5824 5824
5782 5781 5780 5779 5778 5778 5778 5779 5779 5779 5779 5778 5777 5777 5777 5778 5778 5779 5780 5782 5784 5785 5786 5788 5790 5792 5793 5795 5797 5799 5801 5803 5805 5808 5809 5811 5812 5813 5815 5815 5816 5816 5816
5776 5774 5773 5772 5772 5771 5771 5772 5772 5772 5772 5771 5771 5771 5771 5772 5772 5773 5774 5776 5777 5779 5780 5782 5784 5785 5787 5790 5791 5793 5795 5797 5799 5802 5803 5804 5805 5806 5807 5808 5808 5808 5809
5769 5768 5767 5767 5766 5766 5766 5766 5766 5766 5766 5765 5765 5765 5765 5766 5766 5767 5769 5770 5771 5773 5774 5775 5778 5780 5782 5784 5786 5787 5789 5791 5793 5795 5796 5797 5798 5799 5800 5801 5801 5801 5801
5765 5763 5762 5762 5761 5760 5760 5760 5760 5760 5760 5760 5759 5759 5759 5760 5761 5762 5763 5764 5766 5767 5769 5770 5772 5774 5776 5778 5780 5782 5783 5785 5787 5788 5790 5791 5791 5792 5793 5793 5794 5794 5794
5760 5759 5758 5757 5756 5755 5755 5755 5755 5755 5754 5754 5754 5754 5754 5755 5756 5757 5758 5759 5760 5762 5764 5765 5767 5769 5771 5773 5775 5776 5778 5779 5780 5781 5782 5784 5784 5785 5785 5786 5786 5786 5786
5756 5755 5754 5752 5751 5751 5750 5750 5750 5750 5749 5749 5749 5749 5750 5750 5751 5752 5753 5754 5755 5757 5758 5760 5761 5763 5765 5767 5768 5770 5772 5773 5774 5775 5776 5776 5777 5778 5778 5778 5778 5778 5778
5752 5751 5749 5748 5747 5746 5745 5744 5744 5744 5744 5744 5744 5744 5745 5745 5746 5747 5748 5749 5750 5752 5753 5755 5756 5758 5759 5761 5762 5764 5765 5766 5767 5768 5769 5769 5770 5770 5771 5771 5770 5770 5769
5748 5746 5744 5743 5741 5741 5740 5739 5739 5739 5739 5739 5739 5739 5740 5740 5741 5742 5743 5744 5745 5746 5748 5749 5751 5752 5754 5755 5756 5757 5758 5760 5761 5761 5762 5762 5763 5763 5763 5762 5762 5761 5761
5742 5741 5739 5738 5736 5735 5734 5734 5733 5733 5733 5734 5734 5734 5734 5735 5736 5737 5738 5739 5740 5742 5743 5744 5745 5747 5748 5749 5750 5751 5752 5753 5754 5755 5755 5756 5756 5756 5755 5755 5754 5753 5753
5737 5735 5734 5732 5731 5730 5729 5728 5728 5728 5728 5728 5728 5729 5729 5730 5731 5732 5733 5734 5735 5736 5738 5739 5740 5741 5742 5743 5744 5745 5746 5747 5748 5748 5748 5748 5748 5748 5748 5747 5746 5745 5744
5731 5729 5728 5726 5725 5723 5723 5722 5722 5722 5722 5723 5723 5724 5725 5725 5726 5727 5728 5729 5730 5731 5733 5734 5735 5736 5736 5737 5738 5739 5740 5741 5741 5741 5741 5741 5741 5740 5740 5739 5738 5737 5736
5725 5723 5722 5720 5719 5717 5717 5716 5716 5716 5717 5717 5718 5719 5719 5720 5721 5722 5723 5724 5725 5726 5727 5729 5729 5730 5731 5732 5732 5733 5734 5734 5735 5735 5735 5734 5734 5733 5732 5731 5730 5729 5727
5719 5717 5716 5714 5713 5712 5711 5710 5710 5711 5711 5712 5713 5714 5715 5716 5717 5718 5718 5720 5721 5722 5723 5723 5724 5725 5726 5726 5727 5728 5728 5729 5729 5728 5728 5727 5727 5726 5725 5724 5722 5721 5719
5714 5712 5710 5708 5707 5706 5706 5705 5705 5706 5707 5708 5709 5710 5711 5712 5713 5714 5715 5716 5717 5718 5718 5719 5720 5721 5721 5722 5722 5723 5723 5723 5723 5723 5722 5721 5720 5719 5718 5717 5715 5714 5712
5708 5706 5704 5703 5702 5701 5701 5701 5701 5702 5703 5704 5705 5706 5707 5709 5710 5711 5712 5713 5713 5714 5715 5715 5716 5717 5717 5718 5718 5718 5718 5718 5718 5717 5717 5715 5714 5713 5712 5710 5709 5707 5705
5703 5701 5700 5699 5698 5698 5698 5698 5698 5699 5700 5701 5703 5704 5705 5706 5707 5708 5709 5709 5710 5711 5711 5712 5712 5713 5713 5714 5714 5714 5714 5714 5713 5712 5711 5710 5709 5708 5706 5705 5703 5701 5700
5699 5697 5696 5695 5695 5695 5695 5696 5696 5697 5698 5700 5701 5702 5703 5704 5704 5705 5706 5706 5707 5708 5708 5709 5709 5709 5710 5710 5710 5710 5710 5709 5709 5708 5707 5705 5704 5703 5702 5700 5699 5697 5696
5695 5694 5693 5693 5693 5694 5694 5695 5696 5696 5697 5699 5700 5700 5701 5702 5703 5703 5704 5704 5705 5705 5706 5706 5706 5707 5707 5707 5707 5707 5706 5706 5705 5704 5703 5702 5701 5700 5698 5697 5695 5693 5692
5693 5692 5692 5692 5692 5693 5694 5695 5696 5697 5697 5698 5699 5700 5701 5701 5702 5702 5702 5703 5703 5704 5704 5704 5704 5704 5704 5704 5704 5704 5703 5703 5702 5701 5700 5699 5698 5697 5695 5693 5692 5690 5688
5693 5692 5692 5692 5692 5693 5694 5695 5696 5697 5698 5699 5699 5700 5701 5702 5702 5702 5702 5703 5703 5703 5704 5703 5703 5703 5703 5702 5702 5702 5702 5701 5700 5700 5699 5697 5696 5694 5692 5691 5689 5688 5686
5693 5692 5692 5692 5693 5694 5695 5696 5696 5697 5698 5699 5700 5701 5702 5702 5702 5703 5703 5703 5703 5703 5703 5703 5703 5702 5702 5702 5702 5701 5701 5700 5700 5699 5697 5696 5694 5693 5691 5689 5688 5686 5684